Flag for Canada Weather past 2 weeks in Montreal, Quebec, Canada

64 °F

Scattered clouds.

Feels Like: 64 °F
Forecast: 49 / 61 °F
Wind: 16 mph from West

Location: Montreal - Pierre Elliot Trudeau International Aiport

Current Time: Oct 7, 2015 at 3:28:21 PM

Latest Report: Oct 7, 2015 at 3:00 PM

Visibility: 30 mi

Pressure: 29.91 "Hg

Humidity: 52%

Dew point: 46 °F

Location of MontrealLocation

Historic Weather in Montreal — Graph


Montreal temperature yesterday

Maximum temperature yesterday: 57 °F (at 11:00 AM)
Minimum temperature yesterday: 52 °F (at 6:00 AM)
Average temperature yesterday: 56 °F

Past Weeks' High & Low Weather Summary

High77 °F (Sep 29, 3:00 PM)100% (Sep 30, 12:00 AM)30.62 "Hg (Sep 30, 12:00 AM)
Low37 °F (Oct 4, 6:00 AM)32% (Sep 24, 4:00 PM)29.87 "Hg (Sep 29, 4:00 PM)
Average55 °F68%30.28 "Hg
* Reported Sep 22 2:00 PM — Oct 7 2:00 PM, Montreal, Weather by CustomWeather, © 2015

Note: Actual official high and low records may vary slightly from our data, if they occured in-between our weather recording intervals... More about our weather records


Montreal weather history for previous 24 hours

Time TempWeatherWind HumidityBarometerVisibility
2:00 PM
Wed, Oct 7
63 °FBroken clouds.18 mph59%29.93 "Hg15 mi
1:00 PM61 °FScattered clouds.17 mph63%29.94 "Hg15 mi
12:00 PM57 °FPartly sunny.13 mph77%29.95 "Hg15 mi
11:00 AM55 °FOvercast.12 mph82%29.95 "Hg15 mi
10:00 AM55 °FOvercast.16 mph82%29.95 "Hg15 mi
9:00 AM55 °FPartly sunny.12 mph82%29.94 "Hg15 mi
8:54 AM55 °FPartly sunny.14 mph82%29.93 "Hg15 mi
8:00 AM54 °FPartly sunny.12 mph88%29.93 "Hg15 mi
7:00 AM54 °FMostly cloudy.10 mph94%29.93 "Hg15 mi
6:00 AM54 °FPassing clouds.9 mph94%29.92 "Hg15 mi
5:00 AM54 °FPartly cloudy.10 mph94%29.92 "Hg15 mi
4:00 AM54 °FPassing clouds.7 mph94%29.92 "Hg15 mi
3:00 AM54 °FPassing clouds.8 mph88%29.93 "Hg15 mi
2:00 AM54 °FPassing clouds.5 mph88%29.95 "Hg15 mi
1:00 AM54 °FPassing clouds.5 mph88%29.95 "Hg15 mi
12:00 AM54 °FPassing clouds.2 mph82%29.96 "Hg15 mi
11:00 PM
Tue, Oct 6
55 °FPassing clouds.3 mph82%29.97 "Hg15 mi
10:00 PM55 °FPassing clouds.3 mph77%29.97 "Hg15 mi
9:00 PM55 °FPartly cloudy.3 mph77%29.97 "Hg15 mi
8:00 PM55 °FOvercast.3 mph77%29.98 "Hg15 mi
7:00 PM57 °FOvercast.3 mph67%29.98 "Hg15 mi
6:00 PM57 °FPartly sunny.8 mph67%29.98 "Hg30 mi
5:00 PM57 °FPartly sunny.9 mph63%29.99 "Hg30 mi
4:00 PM57 °FOvercast.10 mph63%30.00 "Hg30 mi
3:00 PM57 °FPartly sunny.13 mph63%30.01 "Hg30 mi
Weather by CustomWeather, © 2015

See weather overviewHow to use our weather pages